Custer, SD

10:16 AM MDT on July 27, 2017 (GMT -0600)
Custer County

Weather History for KCUT - July, 2013

Change the Weather History Date:

Monday, July 8, 2013

  Actual Average Record
Temperature  
Mean Temperature 67 °F 65 °F  
Max Temperature 77 °F 79 °F 99 °F (1989)
Min Temperature 56 °F 52 °F 34 °F (1952)
Degree Days  
Heating Degree Days 0 2  
Month to date heating degree days 10 20  
Since 1 June heating degree days 203 240  
Since 1 July heating degree days 10 20  
Cooling Degree Days 2 2  
Month to date cooling degree days 8 16  
Year to date cooling degree days 19 42  
Since 1 June cooling degree days 17 41  
Growing Degree Days 17 (Base 50)    
Moisture  
Dew Point 56 °F    
Average Humidity 73    
Maximum Humidity 93    
Minimum Humidity 53    
Precipitation  
Precipitation 0.99 in 0.08 in 1.86 in (1926)
Month to date precipitation 2.18 0.60  
Year to date precipitation 10.36 10.93  
Sea Level Pressure  
Sea Level Pressure 30.03 in    
Wind  
Wind Speed 7 mph (East)    
Max Wind Speed 18 mph    
Max Gust Speed 26 mph    
Visibility 9 miles    
Events Rain , Thunderstorm    
T = Trace of Precipitation, MM = Missing Value Source: NWS Daily Summary

Daily Weather History Graph

Daily Weather History Graph

Search for Another Location

Airport or City:

Trip Planner

Search our weather history database for the weather conditions in past years. The results will help you decide how hot, cold, wet, or windy it might be!

Date:

Astronomy

Jul. 08, 2013 Rise Set
Actual Time 5:21 AM MDT 8:37 PM MDT
Civil Twilight 4:45 AM MDT 9:13 PM MDT
Nautical Twilight 3:59 AM MDT 9:58 PM MDT
Astronomical Twilight 3:03 AM MDT 10:54 PM MDT
Moon 5:55 AM MDT (7/8) 8:37 PM MDT (7/8)
Length of Visible Light 16h 27m
Length of Day
15h 16m
New Moon, 0% of the Moon is Illuminated
Jul 8
New Moon
Jul 15
First Quarter
Jul 22
Full
Jul 29
Last Quarter
Aug 6
New

Hourly Weather History & Observations

Time (MDT) Temp. Dew Point Humidity Pressure Visibility Wind Dir Wind Speed Gust Speed Precip Events Conditions
12:53 AM 61.0 °F 54.0 °F 78% 29.95 in 10.0 mi NE 8.1 mph - N/A   Partly Cloudy
1:39 AM 62.6 °F 53.6 °F 72% 30.15 in 10.0 mi NNE 6.9 mph - N/A Thunderstorm Thunderstorm
1:53 AM 61.0 °F 55.0 °F 81% 29.97 in 10.0 mi ENE 6.9 mph - 0.00 in Rain , Thunderstorm Light Thunderstorms and Rain
2:11 AM 59.0 °F 55.4 °F 88% 30.19 in 1.8 mi West 3.5 mph - 0.05 in Rain , Thunderstorm Heavy Thunderstorms and Rain
2:27 AM 57.2 °F 55.4 °F 94% 30.23 in 2.5 mi West 8.1 mph 17.3 mph 0.20 in Rain , Thunderstorm Heavy Thunderstorms and Rain
2:33 AM 57.2 °F 57.2 °F 100% 30.24 in 0.8 mi Calm Calm - 0.29 in Rain , Thunderstorm Heavy Thunderstorms and Rain
2:46 AM 57.2 °F 55.4 °F 94% 30.21 in 1.5 mi NE 9.2 mph - 0.65 in Rain , Thunderstorm Heavy Thunderstorms and Rain
2:53 AM 57.0 °F 55.0 °F 93% 29.99 in 2.5 mi NE 17.3 mph 23.0 mph 0.69 in Rain , Thunderstorm Heavy Thunderstorms and Rain
3:00 AM 57.2 °F 55.4 °F 94% 30.19 in 3.0 mi ENE 12.7 mph 23.0 mph 0.03 in Rain , Thunderstorm Thunderstorms and Rain
3:53 AM 57.0 °F 54.0 °F 89% 29.98 in 10.0 mi East 10.4 mph 19.6 mph 0.12 in Rain , Thunderstorm Light Thunderstorms and Rain
4:16 AM 57.2 °F 53.6 °F 88% 30.17 in 10.0 mi East 12.7 mph 23.0 mph 0.00 in   Partly Cloudy
4:53 AM 57.9 °F 53.1 °F 84% 29.98 in 10.0 mi East 6.9 mph 17.3 mph 0.00 in   Partly Cloudy
5:53 AM 57.9 °F 55.0 °F 90% 30.00 in 10.0 mi East 6.9 mph - N/A Thunderstorm Clear
6:53 AM 57.9 °F 55.0 °F 90% 29.98 in 10.0 mi East 5.8 mph - 0.13 in Rain , Thunderstorm Light Rain
7:53 AM 57.0 °F 55.9 °F 96% 30.01 in 10.0 mi NNW 4.6 mph - 0.04 in Rain Light Rain
8:00 AM 57.2 °F 55.4 °F 94% 30.18 in 10.0 mi Calm Calm - 0.00 in Rain , Thunderstorm Light Rain
8:15 AM 60.8 °F 55.4 °F 82% 30.17 in 10.0 mi East 6.9 mph - 0.00 in   Scattered Clouds
8:53 AM 64.0 °F 55.0 °F 73% 29.98 in 10.0 mi East 8.1 mph - 0.00 in   Partly Cloudy
9:53 AM 68.0 °F 53.1 °F 59% 29.97 in 10.0 mi ESE 8.1 mph - N/A   Clear
10:53 AM 69.1 °F 53.1 °F 57% 29.98 in 10.0 mi ESE 10.4 mph - N/A   Mostly Cloudy
11:53 AM 69.1 °F 54.0 °F 58% 29.98 in 10.0 mi ESE 4.6 mph - N/A   Mostly Cloudy
12:53 PM 72.0 °F 55.9 °F 57% 29.96 in 10.0 mi Variable 5.8 mph - N/A   Partly Cloudy
1:53 PM 73.9 °F 55.9 °F 53% 29.94 in 10.0 mi SSE 10.4 mph 17.3 mph N/A   Clear
2:53 PM 75.0 °F 57.0 °F 53% 29.95 in 10.0 mi South 10.4 mph 16.1 mph N/A   Clear
3:53 PM 77.0 °F 59.0 °F 54% 29.94 in 10.0 mi Variable 4.6 mph - N/A   Partly Cloudy
4:53 PM 77.0 °F 59.0 °F 54% 29.90 in 10.0 mi South 10.4 mph - N/A   Clear
5:53 PM 75.9 °F 61.0 °F 60% 29.90 in 10.0 mi Variable 4.6 mph - N/A   Clear
6:53 PM 72.0 °F 62.1 °F 71% 29.91 in 10.0 mi East 6.9 mph - N/A   Mostly Cloudy
7:53 PM 70.0 °F 62.1 °F 76% 29.92 in 10.0 mi ESE 3.5 mph - N/A   Clear
8:53 PM 64.9 °F 61.0 °F 87% 29.92 in 10.0 mi NNW 4.6 mph - N/A   Clear
9:53 PM 64.9 °F 57.9 °F 78% 29.94 in 10.0 mi WSW 4.6 mph - N/A   Partly Cloudy
10:09 PM 64.4 °F 57.2 °F 77% 30.15 in 10.0 mi WSW 4.6 mph - N/A Thunderstorm Clear
10:24 PM 66.2 °F 57.2 °F 73% 30.16 in 10.0 mi WSW 9.2 mph - N/A   Clear
10:53 PM 63.0 °F 59.0 °F 87% 29.95 in 10.0 mi WSW 6.9 mph - 0.01 in   Scattered Clouds
11:53 PM 63.0 °F 50.0 °F 63% 29.98 in 10.0 mi North 10.4 mph - N/A   Clear